Wind_Speed
18 12 15 18 17 20 21 15 12 15 12 12 14 10 14 15 14 10 14 17 14 16 6 6 34 20 19 22 24 18 16 18 12 14 12 16 17 12 19 16 21 23 21 19
15 17 19 18 17 17 17 11 16 15 6 8 8 12 14 11 11 12 10 16 19 19 15 16 12 24 15 20 21 20 15 17 20 18 17 15 12 11 13 16 19 20 19 22
19 20 22 19 17 10 11 13 15 16 13 9 7 13 17 19 16 4 1 10 16 13 14 20 18 5 11 15 15 14 15 11 13 8 8 6 10 12 13 17 19 18 20 20
20 23 17 15 17 10 14 16 15 16 15 12 16 13 16 19 14 10 6 9 12 13 24 22 13 10 9 4 6 6 4 5 7 8 7 6 6 11 12 10 15 19 19 18
21 23 20 14 15 12 16 15 13 16 15 15 19 11 12 11 16 13 15 9 6 11 17 17 12 11 11 9 1 3 3 5 6 5 8 6 9 2 9 13 13 13 15 16
21 25 17 20 16 16 15 11 13 8 11 13 17 16 16 11 14 15 16 11 9 10 13 15 14 13 13 12 6 9 7 5 4 4 5 10 9 10 10 12 8 12 5 10
21 22 19 14 12 15 15 10 8 11 11 13 17 17 14 12 22 21 20 17 14 13 13 13 13 12 12 10 8 9 8 8 6 3 3 5 5 6 6 11 10 11 10 9
19 18 22 14 18 17 17 15 11 11 11 8 14 15 9 15 23 27 24 21 18 16 15 14 13 12 11 11 10 8 8 7 4 2 1 2 3 4 3 10 11 8 12 11
17 22 17 25 14 20 17 15 19 17 17 13 4 9 11 14 14 23 24 22 22 18 17 16 15 13 12 11 10 10 9 6 2 2 4 6 7 6 8 10 11 10 13 15
21 19 17 18 23 20 20 16 14 10 12 14 12 14 10 18 16 16 19 21 21 21 18 17 15 15 12 12 11 9 6 5 3 1 2 3 7 10 8 9 10 13 14 15
22 17 16 16 14 19 13 16 15 10 10 10 10 3 11 12 11 14 20 24 19 20 19 18 16 14 13 11 9 7 5 3 1 2 3 6 7 7 9 7 11 15 15 15
21 10 12 21 19 19 19 19 19 9 13 10 9 2 1 14 15 22 20 29 25 20 18 16 15 14 13 12 9 9 8 4 4 4 6 7 7 6 8 10 10 13 14 15
16 14 11 17 15 13 15 21 14 11 10 11 9 9 6 2 11 20 18 30 26 23 18 16 14 12 12 10 9 6 6 7 5 3 7 7 8 6 7 9 11 11 13 15
13 10 15 12 17 15 19 18 17 14 11 13 14 14 8 9 2 9 12 31 24 19 18 16 13 11 11 9 8 7 6 4 5 7 5 6 6 9 9 8 13 14 15 15
4 11 15 20 23 18 17 20 20 19 14 12 11 7 8 5 9 22 33 17 21 18 18 17 13 12 10 9 8 7 8 6 7 2 4 6 8 8 10 11 13 13 13 15
10 10 14 19 21 21 21 19 23 20 19 19 16 14 11 19 17 24 33 13 23 20 18 16 13 12 10 9 8 7 8 4 6 4 4 4 7 8 9 12 12 15 15 19
15 12 14 19 21 21 21 21 15 15 18 16 15 14 11 12 18 11 3 3 19 21 17 15 13 12 11 11 10 11 5 6 3 3 4 6 8 9 10 12 14 15 17 18
16 15 12 13 17 24 16 18 18 17 12 12 15 12 19 16 12 10 4 4 12 15 16 15 13 13 13 12 11 8 5 3 3 4 5 6 8 10 12 13 13 16 17 17
19 14 12 13 16 18 18 5 12 16 17 11 12 8 19 18 13 12 7 9 14 14 14 14 14 15 13 11 8 4 1 4 2 4 6 7 8 11 12 12 15 16 16 18
5 6 12 14 18 19 4 5 20 2 10 9 14 20 24 20 9 10 12 13 15 15 15 16 16 14 12 10 6 4 2 2 3 5 6 7 9 11 13 13 15 17 16 17
10 2 21 15 10 1 6 7 15 7 1 12 15 10 8 9 17 22 18 17 16 16 16 16 14 12 10 7 5 4 2 4 6 5 5 7 10 12 12 14 17 16 17 19
7 2 13 13 10 7 9 10 11 5 9 14 23 25 30 29 25 21 19 18 17 17 17 14 14 12 9 6 6 4 2 3 4 5 6 8 10 12 11 17 15 17 19 16
12 11 13 8 8 32 26 13 17 17 16 13 22 24 25 23 22 20 19 18 17 16 15 13 11 9 8 7 7 4 1 2 4 6 8 10 11 12 13 15 15 15 16 15
23 12 4 5 14 16 22 23 20 3 18 18 21 22 21 22 20 19 18 17 16 16 14 11 11 9 6 4 4 2 1 4 5 7 9 10 9 13 11 15 14 16 16 17
7 14 17 11 16 25 22 22 19 19 20 20 18 16 19 19 18 18 17 17 16 14 13 11 9 8 5 5 3 1 2 4 6 8 9 10 12 10 13 14 16 18 18 18
10 6 8 1 17 18 9 21 24 21 19 16 16 17 17 19 19 18 17 16 15 14 12 11 9 7 6 4 2 0 3 4 6 9 9 11 11 11 14 15 17 19 20 13
Wind_Direction
206 221 226 233 231 250 271 303 268 250 180 178 243 229 256 254 218 244 247 241 347 61 72 59 7 64 159 197 184 179 191 204 195 217 213 207 224 221 241 249 266 282 282 295
227 225 239 242 249 245 258 279 283 294 192 165 237 274 268 251 269 195 238 43 43 60 80 167 234 231 143 138 163 182 190 186 194 217 210 221 243 241 248 251 277 283 294 300
227 227 217 246 250 237 267 266 261 275 281 172 212 263 274 262 237 191 25 27 46 73 90 124 141 154 153 184 203 217 222 212 206 229 252 255 275 248 245 268 274 296 304 311
232 242 259 210 243 233 241 245 256 268 264 265 200 247 238 239 201 205 129 71 35 77 115 120 132 109 107 111 225 222 215 225 195 200 238 258 234 247 257 246 281 301 318 330
230 232 239 209 248 228 256 260 284 232 262 271 271 271 259 272 164 165 103 86 65 79 101 109 107 103 101 105 151 151 187 213 220 224 215 188 224 293 289 279 295 335 343 342
244 245 223 246 218 242 249 242 264 286 255 251 250 266 264 177 178 123 112 123 129 108 101 101 101 98 97 99 88 100 111 141 175 212 219 233 262 252 253 288 323 279 298 267
234 240 248 215 239 228 227 224 241 233 233 242 238 235 253 108 130 135 142 147 140 130 118 113 112 111 110 105 92 89 99 109 119 150 210 250 279 303 304 310 304 317 316 313
229 226 234 181 226 232 211 225 238 235 223 253 253 233 208 125 116 136 146 148 145 146 135 135 134 130 128 125 129 125 110 109 127 146 318 311 291 294 291 306 325 354 303 301
238 232 224 223 201 235 197 218 245 267 286 288 235 76 115 123 138 139 145 153 151 144 142 144 142 140 136 133 130 133 142 147 120 34 1 348 343 339 326 328 332 304 310 310
246 264 248 221 203 220 250 214 221 238 259 275 254 185 223 162 156 156 157 156 149 146 150 149 148 144 141 140 138 136 140 127 132 34 344 359 326 323 323 333 337 326 325 336
230 253 259 218 197 211 216 243 254 237 236 237 273 155 93 136 179 170 168 155 155 158 154 154 150 146 147 140 145 147 141 95 12 66 301 320 319 312 329 319 323 336 343 351
212 237 238 257 213 212 236 218 232 242 239 260 278 187 263 188 188 179 192 158 157 161 156 157 153 150 148 151 151 159 163 169 223 301 308 318 326 338 324 341 337 336 343 346
207 219 229 256 261 213 219 245 223 232 267 270 264 270 134 101 179 178 194 149 149 153 156 159 156 158 159 160 163 167 148 196 257 280 304 333 356 348 323 318 330 335 328 348
240 209 217 238 243 209 213 229 239 220 212 230 244 269 177 177 102 27 234 136 144 156 157 161 161 166 166 170 172 173 199 225 281 325 336 351 297 330 343 326 309 332 351 347
180 225 214 226 255 268 208 222 229 235 235 248 254 257 140 82 73 64 322 116 145 162 162 161 166 170 173 175 180 186 217 272 315 331 301 303 342 324 320 331 333 329 329 333
214 227 227 236 236 248 260 235 212 222 230 222 229 254 163 146 147 184 218 171 159 160 166 168 170 174 182 188 189 199 247 307 300 312 341 331 327 325 323 328 330 326 317 323
204 200 212 233 237 252 249 248 243 220 224 221 221 103 57 163 190 187 102 4 155 158 165 164 170 177 187 191 194 225 253 280 307 17 338 319 325 324 322 319 324 327 321 322
208 204 209 225 224 236 244 240 231 250 243 222 107 140 161 114 83 80 42 318 131 140 148 158 168 175 184 183 201 221 244 266 27 340 320 322 320 319 320 328 325 315 320 321
201 215 212 226 233 241 237 247 287 233 233 163 116 123 97 107 102 72 66 88 111 132 146 156 167 177 176 194 201 213 57 59 336 318 317 315 320 320 324 323 316 324 327 326
229 341 208 209 238 238 182 348 330 257 212 149 168 165 161 155 189 118 107 106 112 126 141 149 163 161 174 189 187 129 69 227 306 293 309 321 324 322 319 331 323 322 324 325
176 228 247 219 229 232 92 9 18 236 207 44 150 136 134 95 108 129 129 126 128 134 142 149 151 156 170 177 164 164 163 234 276 321 316 326 318 316 336 308 320 333 332 330
173 36 226 222 213 213 173 120 155 219 95 95 96 103 104 112 121 129 132 132 136 139 143 146 148 162 172 153 125 171 241 342 330 327 335 319 321 320 317 326 333 335 335 340
180 166 233 289 244 145 174 169 123 146 139 139 119 121 122 126 131 136 138 139 144 145 147 151 156 148 151 164 169 101 313 345 331 341 327 326 323 328 315 330 327 339 330 332
207 213 201 217 123 131 115 106 116 186 140 131 122 128 135 135 139 140 142 144 146 150 151 150 152 155 155 153 114 136 317 325 346 326 325 323 331 325 336 338 337 322 321 314
21 187 193 236 154 124 138 151 163 180 128 129 138 142 140 142 144 145 146 148 151 150 152 158 154 159 162 134 171 187 291 347 338 329 350 328 315 332 342 336 330 328 315 312
3 6 269 148 131 121 126 163 164 142 132 137 141 132 143 149 148 147 148 151 152 156 158 156 152 144 155 161 171 252 326 334 340 345 330 334 345 343 337 335 342 336 324 327
Height
1511 1512 1510 1502 1496 1490 1484 1486 1483 1474 1469 1480 1486 1486 1483 1480 1482 1485 1487 1491 1495 1494 1499 1499 1496 1494 1521 1531 1531 1532 1533 1537 1537 1537 1542 1543 1544 1549 1548 1549 1546 1547 1546 1544
1506 1509 1497 1492 1489 1488 1488 1492 1489 1474 1468 1478 1484 1487 1479 1477 1480 1482 1487 1494 1501 1501 1497 1491 1519 1506 1512 1522 1525 1529 1531 1531 1531 1534 1536 1541 1543 1545 1546 1544 1544 1543 1543 1541
1502 1493 1490 1490 1488 1492 1495 1498 1494 1490 1475 1476 1487 1496 1487 1478 1479 1482 1487 1494 1502 1506 1504 1509 1517 1537 1523 1523 1523 1523 1525 1526 1527 1532 1537 1540 1542 1543 1544 1542 1542 1541 1539 1538
1493 1488 1484 1487 1490 1490 1503 1488 1489 1488 1489 1499 1478 1509 1481 1474 1474 1480 1488 1496 1507 1509 1511 1516 1525 1525 1519 1520 1521 1524 1524 1524 1527 1532 1536 1539 1541 1541 1542 1540 1539 1539 1536 1534
1489 1485 1483 1488 1489 1487 1495 1484 1484 1485 1491 1491 1486 1493 1476 1462 1476 1482 1492 1502 1510 1514 1515 1520 1521 1521 1522 1522 1520 1520 1520 1524 1529 1531 1534 1538 1540 1541 1540 1539 1538 1537 1535 1533
1479 1475 1475 1479 1481 1484 1484 1486 1489 1486 1491 1509 1492 1492 1481 1472 1472 1483 1497 1506 1512 1514 1515 1517 1520 1520 1521 1522 1519 1520 1523 1527 1530 1533 1535 1537 1538 1538 1538 1537 1536 1534 1535 1533
1477 1475 1469 1473 1480 1481 1484 1492 1516 1519 1512 1511 1479 1487 1477 1464 1471 1483 1496 1506 1511 1514 1515 1517 1520 1522 1524 1524 1524 1525 1527 1529 1531 1533 1535 1536 1537 1536 1536 1535 1533 1532 1531 1531
1487 1489 1470 1469 1479 1482 1482 1488 1505 1520 1507 1493 1470 1484 1471 1466 1475 1484 1494 1501 1509 1514 1516 1520 1523 1526 1528 1529 1530 1530 1531 1532 1533 1533 1534 1535 1536 1535 1534 1532 1530 1530 1529 1527
1478 1475 1458 1464 1468 1474 1478 1491 1480 1491 1480 1490 1482 1475 1473 1478 1483 1488 1495 1501 1505 1511 1517 1522 1526 1528 1530 1531 1533 1534 1534 1533 1533 1534 1533 1534 1534 1533 1532 1531 1529 1527 1525 1522
1466 1479 1453 1452 1460 1467 1467 1468 1490 1486 1512 1515 1480 1478 1483 1479 1486 1489 1497 1501 1504 1510 1517 1522 1525 1528 1530 1532 1533 1535 1535 1534 1534 1534 1534 1534 1533 1531 1531 1529 1528 1526 1523 1520
1463 1468 1464 1450 1459 1469 1473 1477 1472 1474 1480 1502 1503 1490 1469 1475 1480 1484 1489 1498 1506 1511 1516 1521 1524 1527 1529 1531 1533 1533 1534 1534 1533 1533 1533 1532 1531 1530 1529 1528 1526 1524 1521 1519
1453 1461 1473 1461 1447 1452 1458 1465 1469 1485 1492 1479 1483 1489 1464 1467 1471 1478 1483 1488 1500 1508 1515 1520 1524 1526 1529 1532 1533 1534 1534 1534 1533 1532 1531 1530 1529 1528 1528 1527 1525 1523 1520 1518
1447 1460 1478 1474 1456 1450 1460 1459 1458 1467 1473 1485 1495 1486 1464 1467 1469 1474 1479 1484 1496 1504 1512 1519 1523 1527 1529 1531 1532 1533 1534 1533 1532 1531 1530 1529 1528 1528 1527 1526 1523 1522 1519 1517
1444 1451 1463 1476 1462 1451 1463 1459 1455 1461 1481 1482 1480 1474 1467 1470 1474 1480 1477 1478 1493 1505 1511 1517 1523 1527 1529 1531 1532 1533 1532 1531 1530 1529 1529 1528 1527 1526 1525 1524 1521 1519 1517 1516
1445 1454 1453 1455 1453 1450 1452 1456 1456 1460 1461 1475 1470 1471 1470 1474 1481 1480 1500 1483 1493 1504 1510 1515 1522 1526 1529 1531 1532 1532 1530 1529 1529 1528 1528 1527 1526 1525 1524 1522 1520 1519 1517 1514
1440 1453 1453 1457 1451 1449 1450 1445 1449 1451 1453 1457 1460 1463 1458 1471 1478 1487 1487 1484 1492 1500 1507 1514 1519 1524 1528 1529 1530 1531 1528 1528 1527 1527 1526 1526 1525 1524 1523 1521 1519 1517 1516 1513
1438 1444 1454 1461 1451 1451 1455 1441 1438 1444 1442 1446 1459 1469 1470 1475 1481 1480 1484 1486 1490 1496 1505 1512 1518 1522 1525 1527 1528 1527 1527 1526 1526 1526 1527 1526 1525 1523 1522 1520 1518 1516 1513 1511
1438 1440 1445 1454 1453 1469 1435 1427 1429 1435 1435 1440 1448 1458 1464 1476 1482 1484 1488 1488 1491 1497 1504 1510 1516 1520 1523 1524 1525 1525 1525 1525 1525 1526 1526 1525 1524 1522 1520 1518 1517 1514 1512 1509
1429 1437 1446 1452 1450 1438 1430 1430 1431 1433 1438 1436 1447 1459 1466 1478 1484 1486 1490 1492 1495 1500 1506 1511 1516 1519 1520 1522 1523 1524 1524 1525 1526 1526 1525 1524 1522 1521 1519 1517 1515 1512 1510 1507
1433 1443 1437 1441 1452 1453 1436 1439 1436 1431 1447 1439 1447 1458 1464 1474 1478 1488 1493 1497 1500 1504 1508 1513 1515 1517 1519 1520 1522 1523 1525 1525 1525 1524 1523 1522 1521 1520 1517 1515 1513 1511 1508 1505
1449 1459 1443 1434 1440 1445 1438 1447 1440 1458 1458 1438 1444 1452 1460 1469 1476 1489 1495 1500 1504 1507 1511 1513 1516 1518 1519 1520 1521 1523 1524 1524 1522 1522 1521 1521 1520 1518 1516 1513 1511 1508 1505 1502
1434 1455 1433 1424 1437 1453 1441 1443 1460 1460 1451 1447 1456 1462 1467 1476 1484 1491 1497 1501 1505 1509 1512 1514 1517 1517 1518 1520 1521 1523 1522 1522 1522 1521 1521 1520 1519 1516 1515 1512 1509 1507 1504 1502
1428 1434 1438 1419 1415 1420 1436 1438 1445 1451 1453 1456 1460 1468 1472 1479 1486 1493 1498 1502 1506 1509 1513 1516 1517 1518 1519 1520 1521 1522 1523 1523 1522 1521 1520 1519 1518 1516 1514 1511 1508 1506 1504 1501
1402 1409 1424 1423 1424 1429 1436 1440 1440 1455 1451 1457 1464 1470 1476 1481 1488 1494 1498 1503 1507 1511 1514 1516 1518 1519 1519 1520 1521 1523 1523 1522 1522 1521 1519 1518 1516 1514 1512 1509 1507 1505 1502 1498
1415 1411 1417 1418 1416 1429 1438 1443 1446 1454 1451 1459 1467 1472 1476 1482 1488 1493 1498 1504 1508 1511 1514 1516 1518 1519 1520 1521 1522 1523 1522 1521 1521 1519 1519 1518 1515 1512 1510 1508 1505 1502 1499 1496
1431 1436 1421 1419 1414 1423 1436 1443 1445 1449 1454 1462 1467 1470 1477 1482 1488 1494 1499 1504 1508 1511 1514 1516 1517 1520 1521 1522 1522 1522 1522 1520 1520 1519 1518 1516 1513 1511 1509 1507 1504 1500 1496 1493